Location: Plainartige
(45.6866°N, 1.7993°E)
Time: 18:22:12
(UTC+00:00)

CZ-4 R/B - Pass Details

Date: 03 March 2021
Orbit: 532 x 597 km, 97.7° (Epoch: 16 April)

Event Time Altitude Azimuth Distance (km) Brightness Sun altitude
Rises 19:38:27 0° 211° (SSW) 2,668 5.1 -20.9°
Reaches altitude 10° 19:41:26 10° 237° (WSW) 1,790 4.5 -21.4°
Maximum altitude 19:43:30 14° 270° (W) 1,559 4.6 -21.8°
Drops below altitude 10° 19:45:36 10° 302° (WNW) 1,810 5.0 -22.1°
Sets 19:48:39 0° 328° (NNW) 2,721 5.5 -22.7°
